Bookmark and Share
Track history (hours):
 

Elissa

More information available from US FCC via Universal Licensing System and Coast Guard Vessel Documentation Center.

Last reported at 2014-Apr-21 12:33 UTC. Time now 2014-Apr-23 13:15 UTC.
Position N 29°59' W 090°49'.

Length 26 m; draft 3.6 m.

Type: Towing. MMSI: 367306290.

NotesDate/timePositionNaut miles runAvg speedWind from/ knotsBaromVisibWave heightAir tempDewpointWater temp
2014-Apr-21 12:33N 29°59' W 090°49'3 3.3
2014-Apr-21 11:33N 30°01' W 090°45'3 2.8
2014-Apr-21 10:33N 30°01' W 090°42'3 3.0
2014-Apr-21 09:33N 30°03' W 090°39'3 2.8
2014-Apr-21 08:33N 30°03' W 090°36'3 3.1
2014-Apr-21 07:33N 30°03' W 090°32'1 1.3
2014-Apr-21 06:33N 30°03' W 090°31'0 0.3
2014-Apr-21 05:33N 30°03' W 090°31'2 2.3
2014-Apr-21 04:33N 30°01' W 090°28'3 2.7
2014-Apr-21 03:33N 29°60' W 090°26'1 0.7
2014-Apr-21 02:33N 29°60' W 090°25'0 0.0
2014-Apr-21 01:33N 29°60' W 090°25'1 1.1
2014-Apr-21 00:33N 29°59' W 090°24'5 4.6
2014-Apr-20 23:33N 29°56' W 090°20'4 0.6
2014-Apr-20 17:13N 29°58' W 090°16'6 9.5
2014-Apr-20 16:33N 29°58' W 090°24'4 4.4
2014-Apr-20 15:33N 29°60' W 090°28'7 6.9
2014-Apr-20 14:33N 30°03' W 090°35'7 7.2
2014-Apr-20 13:33N 30°01' W 090°43'6 6.2
2014-Apr-20 12:32N 30°02' W 090°50'2 1.4
2014-Apr-20 11:12N 30°04' W 090°51'0 0.0
2014-Apr-20 10:25N 30°04' W 090°51'1 1.5
2014-Apr-20 09:33N 30°04' W 090°52'13 0.3
2014-Apr-18 19:33N 30°02' W 090°37'4 4.5
2014-Apr-18 18:33N 30°03' W 090°32'3 2.6
2014-Apr-18 17:32N 30°03' W 090°29'12 2.5
2014-Apr-18 12:33N 29°58' W 090°16'4 3.6
2014-Apr-18 11:32N 29°56' W 090°13'11 0.5
2014-Apr-17 12:04N 29°59' W 090°25'0 0.1
2014-Apr-17 11:33N 29°59' W 090°25'0 0.0
2014-Apr-17 10:33N 29°59' W 090°25'0 0.0
2014-Apr-17 09:33N 29°59' W 090°25'4 4.5
2014-Apr-17 08:33N 30°03' W 090°29'4 4.0
2014-Apr-17 07:33N 30°03' W 090°33'7 6.6
2014-Apr-17 06:33N 30°02' W 090°41'8 7.8
2014-Apr-17 05:33N 29°59' W 090°49'5 1.5
2014-Apr-17 02:04N 30°04' W 090°51'0 0.0
2014-Apr-17 00:32N 30°04' W 090°51'13 0.4
2014-Apr-15 16:33N 30°02' W 090°36'4 4.4
2014-Apr-15 15:33N 30°03' W 090°31'0 0.1
2014-Apr-15 14:33N 30°03' W 090°31'6 1.5
2014-Apr-15 10:34N 29°59' W 090°25'0 0.0
2014-Apr-15 09:34N 29°59' W 090°25'0 0.0
2014-Apr-15 08:34N 29°59' W 090°25'0 0.0
2014-Apr-15 07:34N 29°59' W 090°25'1 1.0
2014-Apr-15 06:34N 29°59' W 090°24'3 3.5
2014-Apr-15 05:34N 29°56' W 090°21'11 0.9
2014-Apr-14 17:33N 30°03' W 090°32'0 0.0
2014-Apr-14 16:34N 30°03' W 090°32'0 0.0
2014-Apr-14 15:33N 30°03' W 090°32'0 0.4
2014-Apr-14 14:33N 30°03' W 090°32'16 0.4
2014-Apr-12 19:11N 29°59' W 090°49'3 4.7
2014-Apr-12 18:32N 30°01' W 090°46'5 4.9
2014-Apr-12 17:33N 30°02' W 090°41'5 4.7
2014-Apr-12 16:33N 30°03' W 090°36'4 4.1
2014-Apr-12 15:33N 30°03' W 090°31'1 0.8
2014-Apr-12 14:33N 30°03' W 090°30'0 0.0
2014-Apr-12 13:33N 30°03' W 090°30'0 0.0
2014-Apr-12 12:33N 30°03' W 090°30'0 0.0
2014-Apr-12 11:33N 30°03' W 090°30'0 0.0
2014-Apr-12 10:33N 30°03' W 090°30'0 0.0
2014-Apr-12 09:33N 30°03' W 090°30'0 0.0
2014-Apr-12 08:33N 30°03' W 090°30'0 0.0
2014-Apr-12 07:33N 30°03' W 090°30'1 1.2
2014-Apr-12 06:33N 30°03' W 090°29'4 4.2
2014-Apr-12 05:33N 29°60' W 090°26'1 1.4
2014-Apr-12 04:33N 29°59' W 090°24'4 3.7
2014-Apr-12 03:33N 29°56' W 090°21'4 3.8
2014-Apr-12 02:28N 29°58' W 090°17'4 3.5
2014-Apr-12 01:20N 29°56' W 090°13'  

Dump ship's entire track history

sailing weather and tide predictions

Elissa — WDD9058 — position and weather